Orbital Elements at Epoch 2459200.5 (2020-Dec-17.0) TDB
Reference: JPL 33 (heliocentric ecliptic J2000)
Element | Value | Uncertainty (1-sigma) | Units |
e | .08165973018630938 | 2.0142e-08 | |
a | 3.045299051130511 | 1.5452e-08 | au |
q | 2.79662075227857 | 6.5023e-08 | au |
i | 11.12121396747702 | 8.4759e-07 | deg |
node | 109.3169641636802 | 2.7866e-06 | deg |
peri | 299.8726393876637 | 1.2417e-05 | deg |
M | 261.8883639013274 | 1.2765e-05 | deg |
tp | 2459729.506934321237 (2022-May-30.00693432) | 7.0002e-05 | TDB |
period | 1941.079610211717 5.31 | 1.4774e-05 4.045e-08 | d yr |
n | .1854637996845138 | 1.4116e-09 | deg/d |
Q | 3.293977349982453 | 1.6714e-08 | au |
|
| | Orbit Determination Parameters
Additional Information
|